Location: Laterina
(43.5167°N, 11.7167°E)
Time: 15:58:38
(UTC+00:00)

Cosmos 1125 Rocket - Pass Details

Date: 24 September 2020
Orbit: 758 x 780 km, 74.0° (Epoch: 25 October)

Event Time Altitude Azimuth Distance (km) Brightness Sun altitude
Rises 18:38:29 0° 207° (SSW) 3,245 6.9 -17.4°
Reaches altitude 10° 18:40:53 10° 210° (SSW) 2,323 6.1 -17.8°
Maximum altitude 18:46:08 66° 292° (WNW) 850 3.9 -18.7°
Drops below altitude 10° 18:51:26 10° 15° (NNE) 2,341 6.0 -19.6°
Sets 18:53:51 0° 19° (NNE) 3,272 6.8 -20.0°
